Location: Gönnheim
(49.4488°N, 8.2383°E)
Time: 10:04:17
(UTC+00:00)

Cosmos 2082 Rocket - Pass Details

Date: 19 May 2025
Orbit: 831 x 853 km, 71.0° (Epoch: 23 June)

Event Time Altitude Azimuth Distance (km) Brightness Sun altitude
Exits shadow 23:23:27 - 248° (WSW) 2,890 4.8 -20.6°
Reaches altitude 10° 23:24:48 10° 254° (WSW) 2,441 4.4 -20.6°
Maximum altitude 23:29:39 29° 314° (NW) 1,488 3.9 -20.6°
Drops below altitude 10° 23:34:31 10° 14° (NNE) 2,460 5.8 -20.5°
Sets 23:37:19 0° 26° (NNE) 3,401 6.5 -20.5°
